ACA638 CYUL-KLGA

Flight info

Callsign ACA638
Flight time 0h 57m
Altitude 36000
Route FAWNS DCT BUGSY DCT ALB NOBBI5
Aircraft A20N/M-SDE2E3FGHIRWXY/LB1

Departure

Time 2026-05-05 23:04
Airport Montreal / Pierre Elliott Trudeau International Airport (CYUL)

Arrival

Time 2026-05-06 00:02
Airport LaGuardia Airport (KLGA)
Time Latitude Longitude Altitude Speed Heading
2026-05-05 22:49 45.46067 -73.74917 116 ft 0 kts 178°
2026-05-05 22:55 45.46076 -73.74918 113 ft 2 kts 178°
2026-05-05 22:55 45.46091 -73.74919 113 ft 2 kts 178°
2026-05-05 22:56 45.46106 -73.74920 114 ft 2 kts 164°
2026-05-05 22:56 45.46119 -73.74928 112 ft 2 kts 140°
2026-05-05 22:56 45.46130 -73.74943 113 ft 2 kts 117°
2026-05-05 22:56 45.46133 -73.74952 112 ft 0 kts 107°
2026-05-05 22:58 45.46133 -73.74950 112 ft 1 kts 102°
2026-05-05 22:58 45.46136 -73.74937 113 ft 3 kts 69°
2026-05-05 22:58 45.46152 -73.74873 116 ft 10 kts 76°
2026-05-05 22:59 45.46158 -73.74742 116 ft 17 kts 88°
2026-05-05 22:59 45.46134 -73.74556 112 ft 22 kts 101°
2026-05-05 22:59 45.46133 -73.74303 113 ft 29 kts 88°
2026-05-05 22:59 45.46182 -73.74021 114 ft 24 kts 43°
2026-05-05 23:00 45.46470 -73.73630 113 ft 34 kts 43°
2026-05-05 23:00 45.46657 -73.73388 115 ft 38 kts 41°
2026-05-05 23:00 45.46867 -73.73118 114 ft 42 kts 40°
2026-05-05 23:01 45.47081 -73.72829 114 ft 43 kts 43°
2026-05-05 23:01 45.47312 -73.72523 113 ft 47 kts 43°
2026-05-05 23:01 45.47559 -73.72199 115 ft 49 kts 43°
2026-05-05 23:01 45.47748 -73.71948 114 ft 18 kts 42°
2026-05-05 23:02 45.47813 -73.71809 115 ft 12 kts 95°
2026-05-05 23:02 45.47777 -73.71744 116 ft 11 kts 139°
2026-05-05 23:02 45.47767 -73.71732 113 ft 0 kts 138°
2026-05-05 23:03 45.47764 -73.71728 112 ft 3 kts 138°
2026-05-05 23:03 45.47682 -73.71646 113 ft 16 kts 172°
2026-05-05 23:03 45.47629 -73.71700 115 ft 38 kts 222°
2026-05-05 23:04 45.47147 -73.72330 114 ft 143 kts 220°
2026-05-05 23:04 45.46253 -73.73395 539 ft 193 kts 229°
2026-05-05 23:04 45.45199 -73.74993 1174 ft 247 kts 230°
2026-05-05 23:04 45.44030 -73.76840 1881 ft 238 kts 228°
2026-05-05 23:05 45.42836 -73.78204 2642 ft 222 kts 210°
2026-05-05 23:05 45.41351 -73.79118 3463 ft 236 kts 208°
2026-05-05 23:05 45.40344 -73.79774 4046 ft 243 kts 211°
2026-05-05 23:05 45.38828 -73.80829 4650 ft 244 kts 213°
2026-05-05 23:06 45.37308 -73.81926 4904 ft 244 kts 213°
2026-05-05 23:06 45.35802 -73.83019 5004 ft 243 kts 213°
2026-05-05 23:06 45.33803 -73.84467 5014 ft 244 kts 213°
2026-05-05 23:06 45.32280 -73.85563 5212 ft 246 kts 213°
2026-05-05 23:07 45.31249 -73.86299 5744 ft 245 kts 214°
2026-05-05 23:07 45.29750 -73.87367 7254 ft 236 kts 214°
2026-05-05 23:07 45.28312 -73.88394 8988 ft 233 kts 214°
2026-05-05 23:07 45.26858 -73.89442 10439 ft 238 kts 214°
2026-05-05 23:08 45.25313 -73.90565 11332 ft 262 kts 214°
2026-05-05 23:08 45.23611 -73.91803 12092 ft 287 kts 213°
2026-05-05 23:08 45.21781 -73.93115 13073 ft 300 kts 213°
2026-05-05 23:08 45.19892 -73.94452 14256 ft 305 kts 213°
2026-05-05 23:09 45.17984 -73.95803 15387 ft 310 kts 213°
2026-05-05 23:09 45.16038 -73.97184 16487 ft 316 kts 212°
2026-05-05 23:09 45.14060 -73.98591 17569 ft 321 kts 212°
2026-05-05 23:09 45.12068 -74.00009 18556 ft 326 kts 212°
2026-05-05 23:10 45.10004 -74.01477 19556 ft 330 kts 212°
2026-05-05 23:10 45.07963 -74.02928 20497 ft 335 kts 211°
2026-05-05 23:10 45.05872 -74.04413 21451 ft 339 kts 211°
2026-05-05 23:10 45.03734 -74.05929 22328 ft 346 kts 211°
2026-05-05 23:11 45.01541 -74.07431 23122 ft 355 kts 208°
2026-05-05 23:11 44.99204 -74.08655 23922 ft 362 kts 203°
2026-05-05 23:11 44.96726 -74.09529 24666 ft 372 kts 198°
2026-05-05 23:11 44.94129 -74.10059 25368 ft 380 kts 195°
2026-05-05 23:12 44.91492 -74.10537 26049 ft 386 kts 195°
2026-05-05 23:12 44.88811 -74.11032 26724 ft 391 kts 195°
2026-05-05 23:12 44.86095 -74.11537 27376 ft 396 kts 195°
2026-05-05 23:12 44.83349 -74.12053 27957 ft 402 kts 196°
2026-05-05 23:13 44.80558 -74.12578 28575 ft 406 kts 196°
2026-05-05 23:13 44.77737 -74.13107 29160 ft 411 kts 196°
2026-05-05 23:13 44.74912 -74.13623 29680 ft 417 kts 195°
2026-05-05 23:13 44.71970 -74.13842 30174 ft 429 kts 189°
2026-05-05 23:14 44.68952 -74.13603 30649 ft 441 kts 183°
2026-05-05 23:14 44.65881 -74.13048 31141 ft 446 kts 182°
2026-05-05 23:14 44.62788 -74.12483 31627 ft 449 kts 182°
2026-05-05 23:14 44.59679 -74.11920 32288 ft 448 kts 182°
2026-05-05 23:15 44.56583 -74.11363 32952 ft 447 kts 182°
2026-05-05 23:15 44.53502 -74.10816 33597 ft 445 kts 182°
2026-05-05 23:15 44.50423 -74.10274 34134 ft 445 kts 182°
2026-05-05 23:15 44.47356 -74.09735 34711 ft 444 kts 182°
2026-05-05 23:16 44.44293 -74.09196 35281 ft 442 kts 182°
2026-05-05 23:16 44.41254 -74.08662 35648 ft 440 kts 182°
2026-05-05 23:16 44.35223 -74.07611 35776 ft 435 kts 182°
2026-05-05 23:17 44.29214 -74.06568 35755 ft 435 kts 182°
2026-05-05 23:17 44.23236 -74.05530 35794 ft 436 kts 182°
2026-05-05 23:18 44.17204 -74.04480 35792 ft 436 kts 182°
2026-05-05 23:18 44.11180 -74.03433 35784 ft 437 kts 182°
2026-05-05 23:19 44.05132 -74.02381 35777 ft 438 kts 182°
2026-05-05 23:19 43.99074 -74.01336 35793 ft 439 kts 182°
2026-05-05 23:20 43.93010 -74.00292 35770 ft 437 kts 182°
2026-05-05 23:20 43.86980 -73.99255 35771 ft 437 kts 182°
2026-05-05 23:21 43.80834 -73.98212 35773 ft 449 kts 183°
2026-05-05 23:21 43.74654 -73.97146 35767 ft 446 kts 183°
2026-05-05 23:22 43.68476 -73.96096 35773 ft 447 kts 183°
2026-05-05 23:22 43.62297 -73.95033 35777 ft 447 kts 183°
2026-05-05 23:23 43.56157 -73.93984 35653 ft 444 kts 183°
2026-05-05 23:23 43.53088 -73.93459 35090 ft 442 kts 184°
2026-05-05 23:23 43.50041 -73.92940 34348 ft 442 kts 184°
2026-05-05 23:24 43.46988 -73.92419 33434 ft 442 kts 184°
2026-05-05 23:24 43.43921 -73.91900 32336 ft 446 kts 183°
2026-05-05 23:24 43.40865 -73.91392 31337 ft 447 kts 182°
2026-05-05 23:24 43.37762 -73.90876 30324 ft 448 kts 182°
2026-05-05 23:25 43.34662 -73.90358 29398 ft 447 kts 181°
2026-05-05 23:25 43.31606 -73.89840 28645 ft 439 kts 181°
2026-05-05 23:25 43.28597 -73.89329 27879 ft 432 kts 181°
2026-05-05 23:25 43.25639 -73.88832 27101 ft 425 kts 180°
2026-05-05 23:26 43.22722 -73.88344 26390 ft 418 kts 180°
2026-05-05 23:26 43.19854 -73.87863 25672 ft 412 kts 179°
2026-05-05 23:26 43.17027 -73.87391 24995 ft 405 kts 179°
2026-05-05 23:26 43.14252 -73.86930 24324 ft 399 kts 179°
2026-05-05 23:27 43.11532 -73.86473 23985 ft 392 kts 179°
2026-05-05 23:27 43.08840 -73.86025 23828 ft 396 kts 179°
2026-05-05 23:27 43.06104 -73.85570 23775 ft 395 kts 178°
2026-05-05 23:27 43.03370 -73.85113 23779 ft 396 kts 178°
2026-05-05 23:28 43.00634 -73.84656 23783 ft 395 kts 178°
2026-05-05 23:28 42.97899 -73.84199 23783 ft 396 kts 178°
2026-05-05 23:28 42.95168 -73.83742 23781 ft 396 kts 178°
2026-05-05 23:28 42.92437 -73.83287 23783 ft 396 kts 178°
2026-05-05 23:29 42.89702 -73.82830 23783 ft 395 kts 178°
2026-05-05 23:29 42.86968 -73.82374 23765 ft 395 kts 178°
2026-05-05 23:29 42.84236 -73.81919 23505 ft 394 kts 178°
2026-05-05 23:29 42.81523 -73.81466 23024 ft 390 kts 178°
2026-05-05 23:30 42.78835 -73.81016 22344 ft 387 kts 178°
2026-05-05 23:30 42.76205 -73.80576 21930 ft 384 kts 178°
2026-05-05 23:30 42.73560 -73.80301 21423 ft 379 kts 184°
2026-05-05 23:30 42.70934 -73.80296 20746 ft 375 kts 185°
2026-05-05 23:31 42.68336 -73.80294 20004 ft 372 kts 185°
2026-05-05 23:31 42.65751 -73.80289 19208 ft 371 kts 186°
2026-05-05 23:31 42.63178 -73.80281 18506 ft 367 kts 186°
2026-05-05 23:31 42.60639 -73.80270 18162 ft 365 kts 186°
2026-05-05 23:32 42.58084 -73.80264 18020 ft 367 kts 186°
2026-05-05 23:32 42.55530 -73.80256 17990 ft 366 kts 186°
2026-05-05 23:32 42.52984 -73.80248 17988 ft 367 kts 186°
2026-05-05 23:32 42.50430 -73.80240 17984 ft 367 kts 186°
2026-05-05 23:33 42.47877 -73.80232 17981 ft 366 kts 186°
2026-05-05 23:33 42.45317 -73.80225 17980 ft 372 kts 186°
2026-05-05 23:33 42.42763 -73.80217 17975 ft 371 kts 186°
2026-05-05 23:33 42.40188 -73.80208 17974 ft 371 kts 186°
2026-05-05 23:34 42.37605 -73.80198 17972 ft 371 kts 186°
2026-05-05 23:34 42.35026 -73.80188 17967 ft 370 kts 186°
2026-05-05 23:34 42.32451 -73.80180 17968 ft 371 kts 186°
2026-05-05 23:34 42.29868 -73.80172 17968 ft 370 kts 186°
2026-05-05 23:35 42.27291 -73.80164 17950 ft 371 kts 186°
2026-05-05 23:35 42.24692 -73.80158 17967 ft 374 kts 185°
2026-05-05 23:35 42.22095 -73.80149 17967 ft 372 kts 185°
2026-05-05 23:35 42.19497 -73.80139 17967 ft 373 kts 185°
2026-05-05 23:36 42.16904 -73.80130 17963 ft 373 kts 185°
2026-05-05 23:36 42.14308 -73.80121 17964 ft 373 kts 185°
2026-05-05 23:36 42.11745 -73.80112 17964 ft 373 kts 185°
2026-05-05 23:36 42.09153 -73.80104 17967 ft 373 kts 185°
2026-05-05 23:37 42.06555 -73.80096 17953 ft 373 kts 185°
2026-05-05 23:37 42.03956 -73.80088 17965 ft 373 kts 185°
2026-05-05 23:37 42.01363 -73.80079 17964 ft 373 kts 185°
2026-05-05 23:37 41.98762 -73.80070 17964 ft 373 kts 185°
2026-05-05 23:38 41.96163 -73.80061 17968 ft 373 kts 185°
2026-05-05 23:38 41.93563 -73.80053 17972 ft 373 kts 185°
2026-05-05 23:38 41.90960 -73.80044 17975 ft 373 kts 185°
2026-05-05 23:38 41.88358 -73.80035 17978 ft 373 kts 185°
2026-05-05 23:39 41.85759 -73.80028 17959 ft 372 kts 185°
2026-05-05 23:39 41.83181 -73.80020 17981 ft 371 kts 185°
2026-05-05 23:39 41.80597 -73.80011 17983 ft 371 kts 185°
2026-05-05 23:39 41.78048 -73.80002 17987 ft 371 kts 185°
2026-05-05 23:40 41.75467 -73.79994 17990 ft 370 kts 184°
2026-05-05 23:40 41.72904 -73.79933 17993 ft 369 kts 182°
2026-05-05 23:40 41.70324 -73.79824 17995 ft 372 kts 183°
2026-05-05 23:40 41.67700 -73.79757 17996 ft 371 kts 184°
2026-05-05 23:41 41.65152 -73.79734 17995 ft 371 kts 184°
2026-05-05 23:41 41.62569 -73.79729 17996 ft 371 kts 185°
2026-05-05 23:41 41.59992 -73.79730 17996 ft 371 kts 185°
2026-05-05 23:41 41.57365 -73.79796 17989 ft 388 kts 189°
2026-05-05 23:42 41.54620 -73.80002 17951 ft 394 kts 187°
2026-05-05 23:42 41.51925 -73.80072 17800 ft 379 kts 185°
2026-05-05 23:42 41.49332 -73.80052 17395 ft 366 kts 185°
2026-05-05 23:42 41.46797 -73.80013 16652 ft 363 kts 185°
2026-05-05 23:43 41.44293 -73.79977 15955 ft 357 kts 185°
2026-05-05 23:43 41.41808 -73.79951 15198 ft 356 kts 186°
2026-05-05 23:43 41.39342 -73.79929 14496 ft 354 kts 186°
2026-05-05 23:43 41.36887 -73.79892 13811 ft 353 kts 183°
2026-05-05 23:44 41.34484 -73.79325 13141 ft 358 kts 169°
2026-05-05 23:44 41.32207 -73.77964 12486 ft 362 kts 154°
2026-05-05 23:44 41.30121 -73.76086 11813 ft 360 kts 151°
2026-05-05 23:44 41.28075 -73.74214 11214 ft 355 kts 151°
2026-05-05 23:45 41.26048 -73.72365 10586 ft 350 kts 151°
2026-05-05 23:45 41.24076 -73.70571 10327 ft 335 kts 152°
2026-05-05 23:45 41.22200 -73.68869 10150 ft 317 kts 152°
2026-05-05 23:45 41.20420 -73.67259 9981 ft 302 kts 152°
2026-05-05 23:46 41.18695 -73.65702 9590 ft 297 kts 152°
2026-05-05 23:46 41.16995 -73.64173 9036 ft 296 kts 152°
2026-05-05 23:46 41.15280 -73.62634 8603 ft 299 kts 152°
2026-05-05 23:46 41.13575 -73.61137 8485 ft 286 kts 159°
2026-05-05 23:47 41.11701 -73.60450 8688 ft 277 kts 185°
2026-05-05 23:47 41.09867 -73.60897 8968 ft 266 kts 208°
2026-05-05 23:47 41.08284 -73.62111 9094 ft 262 kts 217°
2026-05-05 23:47 41.06761 -73.63386 9162 ft 262 kts 217°
2026-05-05 23:48 41.05224 -73.64677 8948 ft 260 kts 217°
2026-05-05 23:48 41.03702 -73.65948 8640 ft 255 kts 216°
2026-05-05 23:48 41.02206 -73.67192 8154 ft 254 kts 216°
2026-05-05 23:48 41.00708 -73.68432 7684 ft 252 kts 216°
2026-05-05 23:49 40.99225 -73.69658 7224 ft 250 kts 216°
2026-05-05 23:49 40.97762 -73.70868 6803 ft 246 kts 216°
2026-05-05 23:49 40.96316 -73.72058 6350 ft 244 kts 216°
2026-05-05 23:49 40.94881 -73.73244 5909 ft 242 kts 216°
2026-05-05 23:50 40.93459 -73.74421 5460 ft 239 kts 216°
2026-05-05 23:50 40.92053 -73.75585 5016 ft 238 kts 215°
2026-05-05 23:50 40.90662 -73.76732 4740 ft 230 kts 215°
2026-05-05 23:50 40.89338 -73.77820 4521 ft 221 kts 215°
2026-05-05 23:51 40.88031 -73.78897 4015 ft 224 kts 214°
2026-05-05 23:51 40.86714 -73.79988 3413 ft 215 kts 215°
2026-05-05 23:51 40.85923 -73.80717 2996 ft 206 kts 217°
2026-05-05 23:51 40.84414 -73.82133 2083 ft 197 kts 215°
2026-05-05 23:52 40.83286 -73.83105 1532 ft 188 kts 212°
2026-05-05 23:52 40.82212 -73.83979 1110 ft 176 kts 211°
2026-05-05 23:52 40.81530 -73.84556 872 ft 170 kts 211°
2026-05-05 23:52 40.80571 -73.85394 595 ft 162 kts 211°
2026-05-05 23:53 40.79636 -73.86149 298 ft 144 kts 211°
2026-05-05 23:53 40.78898 -73.86777 132 ft 111 kts 213°
2026-05-05 23:53 40.78152 -73.87403 217 ft 159 kts 213°
2026-05-05 23:53 40.77053 -73.88336 474 ft 212 kts 211°
2026-05-05 23:54 40.75831 -73.89748 1233 ft 250 kts 231°
2026-05-05 23:54 40.75266 -73.92012 2509 ft 280 kts 265°
2026-05-05 23:54 40.75942 -73.94449 3163 ft 299 kts 305°
2026-05-05 23:54 40.77851 -73.95669 3162 ft 332 kts 351°
2026-05-05 23:55 40.80092 -73.94833 3223 ft 349 kts 32°
2026-05-05 23:55 40.81940 -73.92691 3119 ft 359 kts 43°
2026-05-05 23:55 40.83762 -73.90355 2949 ft 369 kts 44°
2026-05-05 23:55 40.85581 -73.87956 3039 ft 369 kts 45°
2026-05-05 23:56 40.87395 -73.85613 3369 ft 360 kts 43°
2026-05-05 23:56 40.89190 -73.83359 3739 ft 353 kts 44°
2026-05-05 23:56 40.90884 -73.81072 4246 ft 339 kts 48°
2026-05-05 23:56 40.91904 -73.78506 5211 ft 300 kts 81°
2026-05-05 23:57 40.91810 -73.75938 4998 ft 262 kts 119°
2026-05-05 23:57 40.90786 -73.74242 4405 ft 222 kts 159°
2026-05-05 23:57 40.89478 -73.74261 3616 ft 187 kts 225°
2026-05-05 23:57 40.88738 -73.75655 2843 ft 184 kts 237°
2026-05-05 23:58 40.87994 -73.77170 2293 ft 203 kts 236°
2026-05-05 23:58 40.87240 -73.78768 1744 ft 207 kts 234°
2026-05-05 23:58 40.86360 -73.80204 1407 ft 187 kts 224°
2026-05-05 23:58 40.85460 -73.81228 1310 ft 161 kts 218°
2026-05-05 23:59 40.84608 -73.82023 1222 ft 139 kts 214°
2026-05-05 23:59 40.83855 -73.82665 1122 ft 120 kts 213°
2026-05-05 23:59 40.83182 -73.83225 1031 ft 109 kts 211°
2026-05-05 23:59 40.82575 -73.83731 899 ft 93 kts 213°
2026-05-06 00:00 40.82066 -73.84147 795 ft 83 kts 212°
2026-05-06 00:00 40.81407 -73.84685 690 ft 117 kts 210°
2026-05-06 00:00 40.80673 -73.85300 522 ft 132 kts 212°
2026-05-06 00:00 40.79916 -73.85918 319 ft 118 kts 212°
2026-05-06 00:01 40.79284 -73.86458 209 ft 102 kts 211°
2026-05-06 00:01 40.78719 -73.86926 96 ft 98 kts 213°
2026-05-06 00:01 40.78147 -73.87398 37 ft 91 kts 212°
2026-05-06 00:01 40.77670 -73.87778 23 ft 61 kts 213°
2026-05-06 00:02 40.77419 -73.87982 21 ft 37 kts 201°
2026-05-06 00:02 40.77310 -73.87977 19 ft 0 kts 92°
2026-05-06 00:02 40.77311 -73.87976 19 ft 1 kts 90°
2026-05-06 00:02 40.77323 -73.87938 21 ft 8 kts 49°
2026-05-06 00:03 40.77383 -73.87880 21 ft 14 kts 34°
2026-05-06 00:03 40.77480 -73.87799 24 ft 20 kts 33°
2026-05-06 00:03 40.77593 -73.87697 23 ft 12 kts 50°
2026-05-06 00:03 40.77632 -73.87597 24 ft 8 kts 33°
2026-05-06 00:04 40.77706 -73.87529 21 ft 19 kts 36°
2026-05-06 00:04 40.77769 -73.87362 18 ft 16 kts 80°
2026-05-06 00:04 40.77760 -73.87236 19 ft 17 kts 116°
2026-05-06 00:04 40.77692 -73.87093 16 ft 22 kts 122°
2026-05-06 00:05 40.77546 -73.86986 14 ft 12 kts 212°
2026-05-06 00:05 40.77482 -73.87039 15 ft 5 kts 212°
2026-05-06 00:05 40.77456 -73.87039 15 ft 3 kts 149°
2026-05-06 00:06 40.77439 -73.87022 16 ft 2 kts 138°
2026-05-06 00:06 40.77431 -73.87009 16 ft 1 kts 123°
2026-05-06 00:06 40.77429 -73.87003 16 ft 2 kts 117°
2026-05-06 00:06 40.77427 -73.86998 16 ft 0 kts 118°